CPA549 RJTT-VHHH

Flight info

Callsign CPA549
Flight time N/A
Altitude 34000
Route LAXAS Y56 TOHME Y54 TURFY/N0502F360 Y24 KOSHI A1 ELATO V522 ABBEY
Aircraft B77W/H-SDE1E2E3FGHIJ2J3J4J5M1RWXY/LB1D1

Departure

Time N/A
Airport Tokyo Haneda International Airport (RJTT)

Arrival

Time 2026-05-04 16:00
Airport Hong Kong International Airport (VHHH)
Time Latitude Longitude Altitude Speed Heading
2026-05-04 15:41 22.13810 114.65089 9929 ft 261 kts 225°
2026-05-04 15:41 22.12476 114.63718 9801 ft 263 kts 225°
2026-05-04 15:42 22.11166 114.62373 9672 ft 262 kts 224°
2026-05-04 15:42 22.09830 114.61004 9548 ft 262 kts 224°
2026-05-04 15:42 22.08524 114.59664 9427 ft 261 kts 224°
2026-05-04 15:42 22.07192 114.58298 9301 ft 261 kts 224°
2026-05-04 15:43 22.05875 114.56949 9176 ft 261 kts 224°
2026-05-04 15:43 22.04567 114.55608 9049 ft 261 kts 224°
2026-05-04 15:43 22.03373 114.54123 8946 ft 260 kts 240°
2026-05-04 15:43 22.02808 114.52291 8886 ft 263 kts 263°
2026-05-04 15:44 22.02878 114.50314 8860 ft 264 kts 273°
2026-05-04 15:44 22.03077 114.48366 8856 ft 263 kts 274°
2026-05-04 15:44 22.03285 114.46401 8851 ft 263 kts 274°
2026-05-04 15:44 22.03490 114.44453 8843 ft 263 kts 274°
2026-05-04 15:45 22.03696 114.42502 8835 ft 262 kts 274°
2026-05-04 15:45 22.03903 114.40535 8828 ft 263 kts 274°
2026-05-04 15:45 22.04109 114.38587 8825 ft 261 kts 274°
2026-05-04 15:45 22.04314 114.36650 8824 ft 260 kts 274°
2026-05-04 15:46 22.04519 114.34710 8823 ft 260 kts 273°
2026-05-04 15:46 22.04725 114.32759 8818 ft 261 kts 273°
2026-05-04 15:46 22.04928 114.30832 8812 ft 263 kts 274°
2026-05-04 15:46 22.05137 114.28854 8814 ft 262 kts 273°
2026-05-04 15:47 22.05341 114.26928 8822 ft 261 kts 274°
2026-05-04 15:47 22.05548 114.24971 8818 ft 261 kts 274°
2026-05-04 15:47 22.05754 114.23019 8816 ft 261 kts 274°
2026-05-04 15:47 22.05958 114.21092 8814 ft 261 kts 274°
2026-05-04 15:48 22.06167 114.19128 8816 ft 262 kts 274°
2026-05-04 15:48 22.06373 114.17178 8813 ft 262 kts 274°
2026-05-04 15:48 22.06787 114.13290 8814 ft 262 kts 274°
2026-05-04 15:49 22.06992 114.11359 8810 ft 261 kts 274°
2026-05-04 15:49 22.07202 114.09391 8813 ft 261 kts 274°
2026-05-04 15:49 22.07407 114.07469 8809 ft 261 kts 274°
2026-05-04 15:49 22.07615 114.05525 8750 ft 261 kts 273°
2026-05-04 15:50 22.07823 114.03578 8533 ft 262 kts 274°
2026-05-04 15:50 22.08034 114.01613 8240 ft 262 kts 274°
2026-05-04 15:50 22.08243 113.99670 7924 ft 261 kts 274°
2026-05-04 15:50 22.08451 113.97749 7604 ft 259 kts 274°
2026-05-04 15:51 22.08660 113.95812 7294 ft 259 kts 274°
2026-05-04 15:51 22.08868 113.93896 6994 ft 259 kts 275°
2026-05-04 15:51 22.09078 113.91970 6690 ft 260 kts 275°
2026-05-04 15:51 22.09288 113.90043 6383 ft 260 kts 275°
2026-05-04 15:52 22.09502 113.88101 6067 ft 259 kts 275°
2026-05-04 15:52 22.09714 113.86187 5764 ft 261 kts 275°
2026-05-04 15:52 22.09933 113.84223 5456 ft 263 kts 275°
2026-05-04 15:52 22.10152 113.82275 5146 ft 264 kts 275°
2026-05-04 15:53 22.10378 113.80310 5014 ft 260 kts 276°
2026-05-04 15:53 22.10876 113.78426 4965 ft 265 kts 299°
2026-05-04 15:53 22.12097 113.76979 4961 ft 265 kts 326°
2026-05-04 15:53 22.13686 113.76054 4986 ft 253 kts 334°
2026-05-04 15:54 22.15251 113.75281 4994 ft 237 kts 334°
2026-05-04 15:54 22.16727 113.74554 4998 ft 230 kts 334°
2026-05-04 15:54 22.18176 113.73834 4938 ft 226 kts 334°
2026-05-04 15:54 22.19607 113.73121 4669 ft 225 kts 335°
2026-05-04 15:55 22.21123 113.72736 4290 ft 223 kts
2026-05-04 15:55 22.22548 113.73207 4156 ft 206 kts 29°
2026-05-04 15:55 22.23761 113.73971 3859 ft 202 kts 33°
2026-05-04 15:55 22.24941 113.74786 3433 ft 203 kts 35°
2026-05-04 15:56 22.26108 113.75633 2944 ft 198 kts 44°
2026-05-04 15:56 22.26879 113.76808 2528 ft 185 kts 66°
2026-05-04 15:56 22.27311 113.78081 2282 ft 177 kts 73°
2026-05-04 15:56 22.27683 113.79314 2068 ft 172 kts 71°
2026-05-04 15:57 22.28075 113.80520 1838 ft 165 kts 71°
2026-05-04 15:57 22.28436 113.81629 1616 ft 148 kts 71°
2026-05-04 15:57 22.28761 113.82636 1438 ft 138 kts 71°
2026-05-04 15:57 22.29072 113.83592 1269 ft 135 kts 71°
2026-05-04 15:58 22.29383 113.84551 1086 ft 134 kts 71°
2026-05-04 15:58 22.29693 113.85505 905 ft 135 kts 72°
2026-05-04 15:58 22.30003 113.86462 722 ft 134 kts 72°
2026-05-04 15:58 22.30313 113.87419 546 ft 135 kts 71°
2026-05-04 15:59 22.30654 113.88371 350 ft 135 kts 71°
2026-05-04 15:59 22.30938 113.89327 156 ft 134 kts 75°
2026-05-04 15:59 22.31246 113.90282 42 ft 126 kts 71°
2026-05-04 15:59 22.31489 113.91026 41 ft 84 kts 72°
2026-05-04 16:00 22.31634 113.91466 41 ft 41 kts 73°
2026-05-04 16:00 22.31641 113.91729 41 ft 14 kts 99°
2026-05-04 16:00 22.31627 113.91817 41 ft 10 kts 100°
2026-05-04 16:00 22.31615 113.91892 41 ft 9 kts 100°
2026-05-04 16:01 22.31612 113.91961 41 ft 8 kts 87°
2026-05-04 16:01 22.31602 113.92018 41 ft 7 kts 133°
2026-05-04 16:01 22.31545 113.92049 41 ft 9 kts 159°
2026-05-04 16:01 22.31482 113.92073 41 ft 9 kts 160°
2026-05-04 16:02 22.31427 113.92104 41 ft 9 kts 123°
2026-05-04 16:02 22.31398 113.92162 41 ft 9 kts 119°
2026-05-04 16:02 22.31359 113.92234 41 ft 0 kts 120°
2026-05-04 16:03 22.31358 113.92237 41 ft 1 kts 120°
2026-05-04 16:03 22.31350 113.92252 41 ft 3 kts 120°
2026-05-04 16:03 22.31333 113.92281 41 ft 5 kts 121°
2026-05-04 16:03 22.31309 113.92324 41 ft 7 kts 122°
2026-05-04 16:04 22.31281 113.92373 41 ft 3 kts 122°
2026-05-04 16:04 22.31284 113.92426 41 ft 5 kts 39°
2026-05-04 16:04 22.31316 113.92446 41 ft 5 kts 29°
2026-05-04 16:05 22.31344 113.92461 41 ft 4 kts 27°
2026-05-04 16:05 22.31358 113.92469 41 ft 0 kts 27°